| time (UTC) | temp C | wind direction | speed KPH | gust KPH | rain 1hr cm | rain 24hr cm | rain mn cm | humidity % | barometer mb |
| 20260510190054 | 11 | 268 | 1.6 | 16.1 | 0.00 | 0.00 | 0.00 | 69 | 1012.1 |
| 20260510184552 | 12 | 350 | 3.2 | 14.5 | 0.00 | 0.00 | 0.00 | 69 | 1011.9 |
| 20260510183053 | 12 | 340 | 0.0 | 19.3 | 0.00 | 0.00 | 0.00 | 70 | 1012.1 |
| 20260510181556 | 11 | 64 | 6.4 | 17.7 | 0.00 | 0.00 | 0.00 | 70 | 1011.9 |
| 20260510180108 | 11 | 17 | 6.4 | 22.5 | 0.00 | 0.00 | 0.00 | 71 | 1011.9 |
| 20260510174559 | 11 | 22 | 6.4 | 20.9 | 0.00 | 0.00 | 0.00 | 71 | 1011.7 |
| 20260510173054 | 11 | 24 | 4.8 | 19.3 | 0.00 | 0.00 | 0.00 | 72 | 1011.6 |
| 20260510171552 | 11 | 56 | 6.4 | 25.7 | 0.00 | 0.00 | 0.00 | 71 | 1011.6 |
| 20260510170054 | 12 | 27 | 8.0 | 24.1 | 0.00 | 0.00 | 0.00 | 70 | 1011.5 |
| 20260510164557 | 12 | 49 | 6.4 | 17.7 | 0.00 | 0.00 | 0.00 | 69 | 1011.6 |
| 20260510163058 | 13 | 39 | 6.4 | 22.5 | 0.00 | 0.00 | 0.00 | 68 | 1011.6 |
| 20260510161554 | 14 | 360 | 6.4 | 16.1 | 0.00 | 0.00 | 0.00 | 67 | 1011.9 |
| 20260510160056 | 15 | 34 | 6.4 | 24.1 | 0.00 | 0.00 | 0.00 | 65 | 1012.0 |
| 20260510154557 | 16 | 25 | 8.0 | 22.5 | 0.00 | 0.00 | 0.00 | 62 | 1012.2 |
| 20260510153055 | 17 | 34 | 6.4 | 29.0 | 0.00 | 0.00 | 0.00 | 60 | 1012.2 |
| 20260510151559 | 17 | 30 | 6.4 | 20.9 | 0.00 | 0.00 | 0.00 | 59 | 1012.4 |
| 20260510144605 | 17 | 17 | 9.7 | 19.3 | 0.00 | 0.00 | 0.00 | 59 | 1012.7 |
| 20260510143100 | 17 | 26 | 4.8 | 19.3 | 0.00 | 0.00 | 0.00 | 59 | 1012.8 |
| 20260510141600 | 18 | 0 | 3.2 | 14.5 | 0.00 | 0.00 | 0.00 | 59 | 1012.9 |
| 20260510140100 | 17 | 0 | 4.8 | 19.3 | 0.00 | 0.00 | 0.00 | 58 | 1012.9 |
| 20260510134607 | 18 | 32 | 6.4 | 24.1 | 0.00 | 0.00 | 0.00 | 58 | 1012.9 |
| 20260510133105 | 18 | 360 | 4.8 | 22.5 | 0.00 | 0.00 | 0.00 | 58 | 1013.0 |
| 20260510131606 | 18 | 22 | 4.8 | 17.7 | 0.00 | 0.00 | 0.00 | 56 | 1012.9 |
| 20260510130110 | 18 | 5 | 4.8 | 17.7 | 0.00 | 0.00 | 0.00 | 55 | 1012.9 |
| 20260510124604 | 18 | 74 | 4.8 | 19.3 | 0.00 | 0.00 | 0.00 | 57 | 1013.0 |
| 20260510123104 | 17 | 37 | 3.2 | 16.1 | 0.00 | 0.00 | 0.00 | 57 | 1013.1 |
| 20260510121559 | 18 | 360 | 3.2 | 14.5 | 0.00 | 0.00 | 0.00 | 57 | 1013.2 |
| 20260510114558 | 17 | 32 | 4.8 | 19.3 | 0.00 | 0.00 | 0.00 | 58 | 1013.4 |
| 20260510113059 | 17 | 0 | 4.8 | 19.3 | 0.00 | 0.00 | 0.00 | 57 | 1013.5 |
| 20260510111551 | 17 | 5 | 6.4 | 14.5 | 0.00 | 0.00 | 0.00 | 56 | 1013.8 |
| 20260510110055 | 16 | 118 | 4.8 | 20.9 | 0.00 | 0.00 | 0.00 | 59 | 1013.7 |
| 20260510104554 | 16 | 0 | 4.8 | 20.9 | 0.00 | 0.00 | 0.00 | 63 | 1013.7 |
| 20260510103054 | 15 | 59 | 3.2 | 17.7 | 0.00 | 0.00 | 0.00 | 67 | 1013.6 |
| 20260510101557 | 14 | 23 | 3.2 | 20.9 | 0.00 | 0.00 | 0.00 | 68 | 1013.9 |
| 20260510100059 | 14 | 46 | 4.8 | 22.5 | 0.00 | 0.00 | 0.00 | 68 | 1014.0 |
| 20260510094553 | 13 | 32 | 4.8 | 16.1 | 0.00 | 0.00 | 0.00 | 69 | 1014.1 |
| 20260510093054 | 13 | 26 | 6.4 | 20.9 | 0.00 | 0.00 | 0.00 | 70 | 1014.1 |
| 20260510091554 | 12 | 23 | 3.2 | 16.1 | 0.00 | 0.00 | 0.00 | 71 | 1014.0 |
| 20260510090052 | 11 | 351 | 4.8 | 17.7 | 0.00 | 0.00 | 0.00 | 72 | 1013.9 |
| 20260510084557 | 11 | 329 | 0.0 | 17.7 | 0.00 | 0.00 | 0.00 | 73 | 1014.0 |
| 20260510083056 | 11 | 346 | 4.8 | 20.9 | 0.00 | 0.00 | 0.00 | 73 | 1013.9 |
| 20260510081554 | 11 | 73 | 1.6 | 14.5 | 0.00 | 0.00 | 0.00 | 72 | 1013.7 |
| 20260510080103 | 11 | 0 | 3.2 | 16.1 | 0.00 | 0.00 | 0.00 | 72 | 1013.6 |
| 20260510074601 | 11 | 0 | 3.2 | 25.7 | 0.00 | 0.00 | 0.00 | 74 | 1013.5 |
| 20260510073116 | 10 | 50 | 4.8 | 17.7 | 0.00 | 0.00 | 0.00 | 75 | 1013.3 |
| 20260510071559 | 10 | 30 | 8.0 | 30.6 | 0.00 | 0.00 | 0.00 | 77 | 1013.0 |
| 20260510070057 | 9 | 35 | 8.0 | 27.4 | 0.00 | 0.00 | 0.00 | 79 | 1013.0 |
| 20260510064631 | 8 | 39 | 8.0 | 22.5 | 0.00 | 0.00 | 0.00 | 79 | 1012.8 |
| 20260510063100 | 8 | 11 | 3.2 | 27.4 | 0.00 | 0.00 | 0.00 | 79 | 1012.6 |
| 20260510061557 | 8 | 34 | 6.4 | 19.3 | 0.00 | 0.00 | 0.00 | 79 | 1012.7 |
| 20260510060057 | 8 | 0 | 6.4 | 20.9 | 0.00 | 0.00 | 0.00 | 79 | 1012.6 |
| 20260510054557 | 8 | 103 | 8.0 | 27.4 | 0.00 | 0.00 | 0.00 | 78 | 1012.5 |
| 20260510053055 | 8 | 37 | 6.4 | 22.5 | 0.00 | 0.00 | 0.00 | 77 | 1012.7 |
| 20260510051558 | 8 | 11 | 6.4 | 17.7 | 0.00 | 0.00 | 0.00 | 76 | 1012.8 |
| 20260510050055 | 8 | 32 | 8.0 | 20.9 | 0.00 | 0.00 | 0.00 | 75 | 1012.6 |
| 20260510044556 | 9 | 39 | 8.0 | 25.7 | 0.00 | 0.00 | 0.00 | 75 | 1012.7 |
| 20260510043054 | 9 | 30 | 6.4 | 20.9 | 0.00 | 0.00 | 0.00 | 74 | 1012.7 |
| 20260510041554 | 10 | 68 | 9.7 | 24.1 | 0.00 | 0.00 | 0.00 | 74 | 1012.5 |
| 20260510040054 | 10 | 360 | 9.7 | 27.4 | 0.00 | 0.00 | 0.00 | 73 | 1012.7 |
| 20260510034616 | 10 | 51 | 9.7 | 25.7 | 0.00 | 0.00 | 0.00 | 73 | 1012.5 |
| 20260510033059 | 10 | 65 | 9.7 | 29.0 | 0.00 | 0.00 | 0.00 | 74 | 1012.7 |
| 20260510031554 | 10 | 40 | 8.0 | 25.7 | 0.00 | 0.00 | 0.00 | 75 | 1012.7 |
| 20260510030110 | 11 | 57 | 8.0 | 24.1 | 0.00 | 0.00 | 0.00 | 76 | 1012.9 |
| 20260510024600 | 11 | 46 | 9.7 | 22.5 | 0.00 | 0.00 | 0.00 | 76 | 1012.8 |
| 20260510023057 | 11 | 61 | 8.0 | 27.4 | 0.00 | 0.00 | 0.00 | 75 | 1013.0 |
| 20260510021608 | 11 | 35 | 9.7 | 25.7 | 0.00 | 0.00 | 0.00 | 75 | 1013.0 |
| 20260510020056 | 11 | 103 | 8.0 | 22.5 | 0.00 | 0.00 | 0.00 | 75 | 1013.0 |
| 20260510014601 | 12 | 105 | 4.8 | 25.7 | 0.00 | 0.00 | 0.00 | 75 | 1013.2 |
| 20260510013110 | 12 | 103 | 6.4 | 22.5 | 0.00 | 0.00 | 0.00 | 74 | 1013.4 |
| 20260510011556 | 12 | 46 | 6.4 | 22.5 | 0.00 | 0.00 | 0.00 | 74 | 1013.4 |
| 20260510010054 | 12 | 36 | 6.4 | 32.2 | 0.00 | 0.00 | 0.00 | 74 | 1013.5 |
| 20260510004551 | 12 | 86 | 4.8 | 24.1 | 0.00 | 0.00 | 0.00 | 74 | 1013.5 |
| 20260510003106 | 12 | 61 | 6.4 | 25.7 | 0.00 | 0.00 | 0.00 | 74 | 1013.5 |
| 20260510001554 | 12 | 81 | 4.8 | 25.7 | 0.00 | 0.00 | 0.00 | 75 | 1013.5 |
| 20260510000116 | 13 | 95 | 8.0 | 20.9 | 0.00 | 0.00 | 0.00 | 75 | 1013.8 |
| 20260509234558 | 13 | 89 | 3.2 | 16.1 | 0.00 | 0.00 | 0.00 | 75 | 1013.8 |
| 20260509233055 | 13 | 31 | 3.2 | 19.3 | 0.00 | 0.00 | 0.00 | 75 | 1013.8 |
| 20260509231608 | 13 | 93 | 4.8 | 19.3 | 0.00 | 0.00 | 0.00 | 74 | 1013.9 |
| 20260509230058 | 13 | 49 | 6.4 | 16.1 | 0.00 | 0.00 | 0.00 | 74 | 1013.9 |
| 20260509224555 | 13 | 40 | 4.8 | 16.1 | 0.00 | 0.00 | 0.00 | 74 | 1014.0 |
| 20260509223105 | 13 | 39 | 3.2 | 12.9 | 0.00 | 0.00 | 0.00 | 73 | 1014.1 |
| 20260509221626 | 13 | 13 | 3.2 | 11.3 | 0.00 | 0.00 | 0.00 | 73 | 1014.3 |
| 20260509220056 | 13 | 349 | 3.2 | 8.0 | 0.00 | 0.00 | 0.00 | 71 | 1014.4 |
| 20260509214603 | 13 | 32 | 3.2 | 8.0 | 0.00 | 0.00 | 0.00 | 71 | 1014.2 |
| 20260509213055 | 13 | 346 | 0.0 | 9.7 | 0.00 | 0.00 | 0.00 | 72 | 1014.2 |
| 20260509211605 | 13 | 32 | 3.2 | 8.0 | 0.00 | 0.00 | 0.00 | 71 | 1014.2 |
| 20260509210056 | 13 | 24 | 3.2 | 8.0 | 0.00 | 0.00 | 0.00 | 71 | 1014.0 |
| 20260509204600 | 13 | 49 | 3.2 | 8.0 | 0.00 | 0.00 | 0.00 | 70 | 1014.1 |
| 20260509203102 | 13 | 0 | 0.0 | 9.7 | 0.00 | 0.00 | 0.00 | 70 | 1014.0 |
| 20260509201553 | 14 | 41 | 4.8 | 12.9 | 0.00 | 0.00 | 0.00 | 70 | 1014.0 |
| 20260509200111 | 14 | 14 | 3.2 | 11.3 | 0.00 | 0.00 | 0.00 | 69 | 1014.0 |
| 20260509194556 | 14 | 9 | 3.2 | 8.0 | 0.00 | 0.00 | 0.00 | 70 | 1014.0 |
| 20260509193102 | 15 | 0 | 0.0 | 0.0 | 0.00 | 0.00 | 0.00 | 70 | 1014.0 |
| 20260509191553 | 15 | 0 | 0.0 | 0.0 | 0.00 | 0.00 | 0.00 | 69 | 1014.0 |